Weather History for PAGY - January, 2013

Change the Weather History Date:

Thursday, January 24, 2013

  Actual Average Record
Temperature  
Mean Temperature 34 °F -  
Max Temperature 39 °F 27 °F 52 °F (2014)
Min Temperature 30 °F 19 °F -13 °F (1971)
Degree Days  
Heating Degree Days 30    
Moisture  
Dew Point 33 °F    
Average Humidity 87    
Maximum Humidity 96    
Minimum Humidity 73    
Precipitation  
Precipitation 0.01 in - - ()
Sea Level Pressure  
Sea Level Pressure 29.59 in    
Wind  
Wind Speed 8 mph (SSW)    
Max Wind Speed 20 mph    
Max Gust Speed 26 mph    
Visibility 10 miles    
Events Rain    
Averages and records for this station are not official NWS values.
T = Trace of Precipitation, MM = Missing Value Source: NWS Daily Summary

Daily Weather History Graph

Daily Weather History Graph

Search for Another Location

Airport or City:

Trip Planner

Search our weather history database for the weather conditions in past years. The results will help you decide how hot, cold, wet, or windy it might be!

Date:

Astronomy

Jan. 24, 2013 Rise Set
Actual Time 8:28 AM AKST 3:59 PM AKST
Civil Twilight 7:39 AM AKST 4:48 PM AKST
Nautical Twilight 6:48 AM AKST 5:39 PM AKST
Astronomical Twilight 6:00 AM AKST 6:27 PM AKST
Moon 1:59 PM AKST (1/24) 6:41 AM AKST (1/24)
Length of Visible Light 9h 08m
Length of Day
7h 31m
Waxing Gibbous, 95% of the Moon is Illuminated
Jan 24
Waxing Gibbous
Jan 26
Full
Feb 3
Last Quarter
Feb 9
New
Feb 17
First Quarter

Hourly Weather History & Observations

Time (AKST) Temp. Windchill Dew Point Humidity Pressure Visibility Wind Dir Wind Speed Gust Speed Precip Events Conditions
12:53 AM 37.9 °F 29.6 °F 33.1 °F 83% 29.64 in 10.0 mi South 13.8 mph 20.7 mph N/A   Overcast
1:53 AM 37.9 °F 29.6 °F 33.1 °F 83% 29.65 in 10.0 mi SSW 13.8 mph 19.6 mph N/A   Overcast
3:53 AM 39.0 °F 30.6 °F 33.1 °F 79% 29.66 in 10.0 mi SSW 15.0 mph 24.2 mph N/A   Overcast
4:53 AM 39.0 °F 30.3 °F 33.1 °F 79% 29.66 in 10.0 mi SSW 16.1 mph 26.5 mph N/A   Overcast
5:53 AM 39.0 °F 29.6 °F 33.1 °F 79% 29.66 in 10.0 mi SSW 18.4 mph - N/A   Overcast
6:53 AM 39.0 °F 29.3 °F 33.1 °F 79% 29.66 in 10.0 mi SSW 19.6 mph 26.5 mph N/A   Overcast
7:53 AM 37.9 °F 34.4 °F 30.9 °F 76% 29.66 in 10.0 mi ENE 4.6 mph - N/A   Scattered Clouds
8:53 AM 37.0 °F 31.0 °F 32.0 °F 82% 29.67 in 10.0 mi South 8.1 mph - N/A   Overcast
9:53 AM 39.9 °F 33.9 °F 32.0 °F 73% 29.67 in 10.0 mi SSW 9.2 mph - N/A   Overcast
10:53 AM 37.9 °F 33.5 °F 30.9 °F 76% 29.66 in 10.0 mi Variable 5.8 mph - N/A   Partly Cloudy
11:53 AM 36.0 °F 33.3 °F 32.0 °F 86% 29.65 in 10.0 mi NNE 3.5 mph - N/A   Overcast
12:32 PM 37.4 °F - 33.8 °F 87% 29.65 in 10.0 mi Calm Calm - 0.00 in Rain Light Rain
12:53 PM 37.9 °F 34.4 °F 33.1 °F 83% 29.64 in 10.0 mi Variable 4.6 mph - 0.00 in Rain Light Rain
1:01 PM 37.4 °F 34.9 °F 33.8 °F 87% 29.63 in 10.0 mi SW 3.5 mph - 0.00 in Rain Light Rain
1:16 PM 37.4 °F 31.4 °F 33.8 °F 87% 29.63 in 10.0 mi SW 8.1 mph - 0.00 in   Overcast
1:37 PM 37.4 °F 32.1 °F 33.8 °F 87% 29.63 in 10.0 mi SW 6.9 mph - 0.01 in   Overcast
1:53 PM 37.0 °F 34.5 °F 34.0 °F 89% 29.62 in 10.0 mi WSW 3.5 mph - 0.01 in   Overcast
2:22 PM 35.6 °F - 33.8 °F 93% 29.61 in 10.0 mi Calm Calm - N/A   Overcast
2:46 PM 37.4 °F - 35.6 °F 93% 29.60 in 10.0 mi Calm Calm - N/A   Overcast
2:53 PM 36.0 °F - 34.0 °F 93% 29.60 in 10.0 mi Calm Calm - N/A   Overcast
3:15 PM 35.6 °F - 33.8 °F 93% 29.59 in 10.0 mi Calm Calm - N/A   Overcast
3:31 PM 35.6 °F - 33.8 °F 93% 29.58 in 10.0 mi Calm Calm - N/A   Overcast
3:51 PM 35.6 °F - 33.8 °F 93% 29.57 in 10.0 mi Calm Calm - N/A   Overcast
3:53 PM 35.1 °F - 33.1 °F 92% 29.57 in 10.0 mi Calm Calm - N/A   Overcast
4:25 PM 33.8 °F 30.8 °F 32.0 °F 93% 29.56 in 10.0 mi NNE 3.5 mph - N/A   Overcast
4:53 PM 34.0 °F - 30.9 °F 89% 29.56 in 10.0 mi Calm Calm - N/A   Overcast
5:53 PM 33.1 °F 28.7 °F 30.9 °F 92% 29.54 in 10.0 mi NE 4.6 mph - N/A   Overcast
6:53 PM 34.0 °F - 33.1 °F 96% 29.51 in 10.0 mi Calm Calm - N/A   Overcast
7:53 PM 34.0 °F - 32.0 °F 92% 29.49 in 10.0 mi Calm Calm - N/A   Overcast
8:53 PM 33.1 °F - 30.9 °F 92% 29.46 in 8.0 mi Calm Calm - N/A   Overcast
9:53 PM 30.9 °F 27.5 °F 28.9 °F 92% 29.44 in 10.0 mi ENE 3.5 mph - N/A   Mostly Cloudy
10:53 PM 33.1 °F - 30.9 °F 92% 29.42 in 10.0 mi Calm Calm - N/A   Overcast
11:53 PM 33.1 °F - 30.9 °F 92% 29.41 in 10.0 mi Calm Calm - N/A   Overcast